DateTimeUTC,F1_A11,F1_S11,BsB_S11,BsG_S11,BsR_S11,BbsB_S11,BbsG_S11,BbsR_S11,BaB_A11,BaG_A11,BaR_A11,Tu_S11,T_S11,Uu_S11,U_S11,P_S11,T1_A11
2021-08-22T03:00:00Z,00000200,20000000,,,,,,,-000.05,0000.20,0000.12,18.7,25.4,10.2,06.7,0678.1,30.9
2021-08-22T03:01:00Z,00000200,20000000,,,,,,,-000.12,0000.09,-000.16,18.7,25.4,10.1,06.7,0678.1,30.9
2021-08-22T03:02:00Z,00000200,20000000,,,,,,,-000.29,-000.66,-000.02,18.7,25.4,10.1,06.7,0678.1,31.0
2021-08-22T03:03:00Z,00000200,60000000,,,,,,,0000.90,0001.00,0000.27,18.7,25.4,10.1,06.7,0678.1,30.9
2021-08-22T03:04:00Z,00000200,40000000,0003.55,0002.76,0001.42,0000.27,0000.45,-000.02,0000.79,0000.60,0000.97,18.8,25.3,09.9,06.7,0678.9,30.9
2021-08-22T03:05:00Z,00000200,00000000,0003.73,0002.70,0001.95,0000.80,0000.34,0000.61,0001.01,0001.08,0000.54,18.9,25.2,10.1,06.8,0679.0,30.9
2021-08-22T03:06:00Z,00000200,00000000,0004.30,0002.70,0001.74,0000.90,0000.60,0000.10,0000.39,0000.66,0000.51,18.9,25.2,10.1,06.9,0679.0,30.9
2021-08-22T03:07:00Z,00000200,00000000,0003.89,0002.57,0001.69,-000.14,0000.67,0000.27,0000.94,0000.59,0000.47,18.9,25.2,10.1,06.9,0679.0,30.9
2021-08-22T03:08:00Z,00000200,00000000,0003.23,0002.43,0001.77,0001.24,0000.41,-000.13,0000.76,0001.02,0000.95,18.9,25.2,10.1,06.9,0679.0,30.9
2021-08-22T03:09:00Z,00000200,00000000,0003.57,0002.64,0001.55,0000.52,0000.38,0000.13,0000.89,0000.53,0000.29,18.9,25.2,10.1,06.8,0679.0,30.9
2021-08-22T03:10:00Z,00000200,00000000,0003.22,0002.53,0001.74,0000.40,0000.36,0000.32,0000.94,0000.45,0000.45,18.9,25.2,10.1,06.8,0679.0,30.9
2021-08-22T03:11:00Z,00000200,00000000,0003.46,0002.66,0001.82,0001.16,0000.26,0000.14,0000.44,0000.83,0000.57,18.9,25.2,10.1,06.9,0679.0,30.9
2021-08-22T03:12:00Z,00000200,00000000,0003.89,0002.84,0002.03,0000.53,0000.38,0000.54,0000.93,0000.86,0000.78,18.9,25.2,10.1,06.9,0679.0,30.9
2021-08-22T03:13:00Z,00000200,00000000,0004.78,0002.47,0002.02,0000.53,0000.58,0000.16,0000.50,0000.79,0000.29,18.9,25.2,10.1,06.9,0679.0,30.9
2021-08-22T03:14:00Z,00000200,00000000,0003.38,0002.79,0002.20,0001.06,0000.38,0000.33,0001.26,0000.60,0000.79,18.9,25.2,10.0,06.8,0679.0,30.9
2021-08-22T03:15:00Z,00000200,00000000,0004.09,0003.37,0002.03,0001.19,0000.44,0000.41,0000.80,0001.03,0000.90,18.9,25.2,10.1,06.9,0679.0,30.9
2021-08-22T03:16:00Z,00000200,00000000,0004.23,0003.24,0001.82,0000.87,0000.44,0000.26,0000.65,0000.49,0000.27,18.9,25.2,10.1,06.9,0679.0,31.0
2021-08-22T03:17:00Z,00000200,00000000,0004.17,0003.17,0002.14,0001.09,0000.87,0000.33,0001.05,0001.15,0000.96,18.9,25.2,10.1,06.9,0679.0,30.9
2021-08-22T03:18:00Z,00000200,00000000,0004.00,0002.90,0001.82,0000.15,0000.61,0000.22,0000.89,0000.78,0000.74,18.9,25.2,10.1,06.9,0679.0,30.9
2021-08-22T03:19:00Z,00000200,00000000,0003.18,0002.87,0001.91,0000.09,0000.46,0000.09,0000.81,0000.82,0000.36,18.9,25.2,10.1,06.9,0679.0,30.9
2021-08-22T03:20:00Z,00000200,00000000,0004.49,0002.84,0002.09,0000.47,0000.45,0000.13,0000.99,0000.97,0000.92,18.9,25.2,10.2,06.9,0679.0,30.9
2021-08-22T03:21:00Z,00000200,00000000,0004.47,0003.30,0002.19,0000.76,0000.76,0000.36,0000.91,0000.40,0000.17,18.9,25.1,10.1,06.9,0679.0,30.9
2021-08-22T03:22:00Z,00000200,00000000,0004.77,0002.93,0001.67,0000.80,0000.29,0000.54,0000.77,0001.19,0000.83,18.9,25.2,10.1,06.8,0679.0,30.9
2021-08-22T03:23:00Z,00000200,00000000,0004.12,0002.95,0001.79,0000.21,0000.45,0000.18,0001.04,0000.71,0001.04,18.9,25.1,10.1,06.8,0679.0,30.9
2021-08-22T03:24:00Z,00000200,00000000,0003.96,0002.90,0001.86,0000.59,0000.37,0000.40,0000.85,0000.69,0000.60,18.9,25.2,10.1,06.9,0679.0,30.9
2021-08-22T03:25:00Z,00000200,00000000,0003.04,0003.25,0002.45,0000.55,0000.72,0000.35,0001.01,0000.62,0000.56,18.9,25.1,10.1,06.9,0679.0,30.9
2021-08-22T03:26:00Z,00000200,00000000,0004.82,0003.12,0002.06,0001.07,0000.38,0000.06,0001.07,0001.36,0000.48,18.9,25.1,10.1,06.9,0679.0,30.9
2021-08-22T03:27:00Z,00000200,00000000,0004.40,0003.31,0002.06,0001.08,0000.54,0000.17,0000.64,0000.98,0001.05,18.9,25.1,10.0,06.8,0679.0,30.9
2021-08-22T03:28:00Z,00000200,00000000,0004.12,0003.05,0002.23,0000.77,0000.59,0000.42,0001.25,0000.92,0000.88,18.9,25.1,10.2,06.9,0679.0,30.9
2021-08-22T03:29:00Z,00000200,00000000,0004.17,0003.30,0001.96,0000.81,0000.57,0000.28,0000.83,0000.83,0000.62,18.9,25.2,10.1,06.9,0679.0,30.9
2021-08-22T03:30:00Z,00000200,00000000,0003.37,0003.31,0002.36,0000.15,0000.41,0000.03,0000.92,0000.81,0000.54,18.9,25.1,10.1,06.9,0679.0,30.9
2021-08-22T03:31:00Z,00000200,00000000,0004.03,0002.98,0002.01,0000.98,0000.63,0000.09,0000.66,0000.51,0000.66,18.9,25.1,10.1,06.9,0679.0,30.9
2021-08-22T03:32:00Z,00000200,00000000,0004.10,0002.77,0001.94,0000.80,0000.70,0000.25,0001.16,0001.01,0000.53,18.9,25.1,10.1,06.9,0679.0,30.9
2021-08-22T03:33:00Z,00000200,00000000,0003.96,0003.12,0002.01,0000.78,0000.66,0000.21,0000.81,0001.09,0000.84,18.9,25.1,10.2,06.9,0679.0,30.9
2021-08-22T03:34:00Z,00000200,00000000,0003.81,0003.21,0002.04,0000.96,0000.47,0000.23,0001.18,0000.72,0000.92,18.9,25.1,10.1,06.9,0679.0,30.9
2021-08-22T03:35:00Z,00000200,00000000,0003.88,0002.99,0001.92,0001.05,0000.81,0000.36,0000.82,0000.92,0000.61,18.9,25.1,10.1,06.9,0679.0,30.9
2021-08-22T03:36:00Z,00000200,00000000,0004.75,0003.15,0001.95,0000.45,0000.90,0000.29,0000.78,0000.81,0000.39,18.9,25.1,10.1,06.9,0679.0,30.9
2021-08-22T03:37:00Z,00000200,00000000,0004.71,0003.13,0002.09,0000.57,0000.56,0000.00,0001.06,0001.11,0000.97,18.9,25.2,10.2,06.9,0679.0,30.9
2021-08-22T03:38:00Z,00000200,00000000,0003.41,0002.61,0002.31,0000.26,0000.33,0000.28,0000.68,0000.50,0000.67,18.9,25.1,10.1,06.9,0679.0,31.0
2021-08-22T03:39:00Z,00000200,00000000,0004.49,0003.28,0002.18,0000.88,0000.67,0000.19,0001.30,0000.85,0000.77,18.9,25.1,10.1,06.9,0679.0,30.9
2021-08-22T03:40:00Z,00000200,00000000,0004.22,0003.26,0002.35,0000.76,0000.51,0000.21,0000.95,0001.15,0000.57,18.9,25.1,10.1,06.9,0679.0,30.9
2021-08-22T03:41:00Z,00000200,00000000,0004.35,0003.13,0002.56,0001.09,0000.57,0000.49,0001.03,0000.79,0001.02,18.9,25.1,10.1,06.9,0679.0,30.9
2021-08-22T03:42:00Z,00000200,00000000,0004.72,0003.19,0002.44,0000.92,0000.83,0000.19,0000.64,0000.99,0000.48,18.9,25.1,10.1,06.9,0679.0,30.9
2021-08-22T03:43:00Z,00000200,00000000,0004.74,0003.48,0002.19,0000.57,0000.53,0000.56,0001.39,0000.94,0000.78,18.9,25.1,10.1,06.9,0679.0,30.9
2021-08-22T03:44:00Z,00000200,00000000,0005.14,0003.53,0002.77,0000.61,0000.80,0000.22,0001.01,0000.98,0001.13,18.9,25.1,10.1,06.9,0679.0,30.9
2021-08-22T03:45:00Z,00000200,00000000,0004.35,0003.45,0002.23,0000.66,0000.65,0000.37,0001.05,0001.00,0000.45,18.9,25.1,10.1,06.9,0679.0,30.9
2021-08-22T03:46:00Z,00000200,00000000,0005.58,0003.78,0002.27,0001.28,0000.52,0000.27,0000.73,0001.10,0000.93,18.9,25.1,10.1,06.9,0679.0,30.9
2021-08-22T03:47:00Z,00000200,00000000,0005.33,0004.24,0002.17,0000.50,0000.25,0000.47,0001.16,0000.73,0000.60,18.9,25.1,10.1,06.9,0679.0,30.9
2021-08-22T03:48:00Z,00000200,00000000,0004.57,0003.60,0002.65,0000.88,0000.65,0000.23,0001.44,0001.06,0001.24,18.9,25.1,10.0,06.8,0679.0,30.9
2021-08-22T03:49:00Z,00000200,00000000,0005.06,0003.92,0002.68,0001.11,0000.61,0000.37,0000.60,0000.97,0000.33,18.9,25.1,10.1,06.9,0679.0,30.9
2021-08-22T03:50:00Z,00000200,00000000,0005.91,0004.02,0002.52,0000.86,0000.68,0000.14,0001.14,0000.96,0000.72,18.9,25.1,10.1,06.9,0679.0,30.9
2021-08-22T03:51:00Z,00000200,00000000,0004.64,0003.67,0002.71,0000.49,0000.62,0000.27,0001.24,0001.11,0001.09,18.9,25.1,10.1,06.9,0679.0,30.9
2021-08-22T03:52:00Z,00000200,00000000,0005.13,0003.73,0002.31,0000.74,0000.61,0000.43,0001.34,0001.10,0000.95,18.9,25.1,10.1,06.9,0679.0,30.9
2021-08-22T03:53:00Z,00000200,00000000,0005.38,0003.92,0002.59,0001.08,0000.30,0000.17,0000.70,0000.62,0000.46,18.9,25.1,10.1,06.9,0679.0,30.9
2021-08-22T03:54:00Z,00000200,00000000,0005.28,0003.94,0002.75,0000.68,0000.77,0000.65,0001.54,0001.55,0001.07,18.9,25.1,10.1,06.9,0678.9,30.9
2021-08-22T03:55:00Z,00000200,00000000,0005.19,0003.77,0002.79,0000.71,0000.56,0000.41,0000.81,0000.94,0000.78,18.9,25.1,10.2,06.9,0679.0,30.9
2021-08-22T03:56:00Z,00000200,00000000,0005.14,0003.98,0002.53,0000.79,0000.64,0000.11,0001.30,0000.94,0000.74,18.9,25.1,10.0,06.8,0679.0,30.9
2021-08-22T03:57:00Z,00000200,40000000,,,,,,,0000.22,0000.31,0000.36,18.9,25.1,10.2,07.0,0679.0,30.9
2021-08-22T03:58:00Z,00000200,60000000,,,,,,,-000.19,0000.22,0000.06,18.7,25.2,10.1,06.7,0678.0,30.9
2021-08-22T03:59:00Z,00000200,20000000,,,,,,,0000.13,-000.38,-000.28,18.7,25.4,10.1,06.7,0678.0,30.9
